OPS 4682 DEB, 38360

Orbit data source: Space-Track

OPS 4682 DEB, 38360 is space debris in LEO originally from a launch on Sat, 03 Apr 1965 UTC launched from the Air Force Western Test Range (AFWTR). Debris objects in space refer to the collection of defunct objects orbiting the Earth. Examples of debris include non-operational satellites, rocket bodies, and fragments generated from explosions, collisions, or faulty payload assembly.

Loading next visibility...
Identifier
38360, 1965-027BM
Orbit
LEO
Country
Flag of USUS
Related business
Manufacturer
Unknown
Mission
Spacecraft
Bus & Motor
Unknown
Mass
Unknown
Launch date (UTC)
1965-04-03 (61 years ago)
Launch vehicle
Unknown
Launch site
Air Force Western Test Range (AFWTR)
Object type
Payload
Rocket body
Debris
Shape & HBR
Unknown shape, 0.1 m
Radar Cross Section
Small (<0.1 m²)

Expand to show TLE details & history
Last TLE update: 16 hours ago

TLE from 16 hours ago
0 OPS 4682 DEB
1 38360U 65027BM  25292.88681860  .00000604  00000-0  19591-2 0  9992
2 38360  90.2409 359.5535 0036069 143.1999 217.1610 13.00674475633581
Epoch: 2025-10-19T21:17Z
TLE epoch observation values (Epoch: 2025-10-19T21:17:01.127Z)
Latitude
0.00004°
Longitude
11.70176°
Altitude
1,284.324 km
Speed
7.203 km/s
True Right ascension
23h 58m 12s
True Declination
0° 00' 00"
Sunlit
Object was in full shadow at epoch
Visualization orbit readout
Latitude
Unknown
Longitude
Unknown
Altitude
Unknown
Speed
Unknown
Apparent Right ascension
Unknown
Apparent Declination
Unknown
Sunlit
N/A
Visualization observer readout
Local Sidereal Time
08:25:55
Azimuth
Unknown
Elevation
Unknown
Doppler factor
Unknown
Orbital elements
Apogee altitude
1,284.109 km
Perigee altitude
1,229.033 km
Semi-major axis
7,634.708 km
Eccentricity
0.00361
Inclination
90.2409°
RAAN
359.5535°
Arg. of periapsis
143.1999°
True anomaly
216.91223°
Mean anomaly
217.161°
Eccentric anomaly
217.03652°
Mean motion
3.25353 °/min
Orbital period
110.65 mins
BSTAR
0.0019591
Loading maneuver chart data...
Computing Atmospheric mass density...
Loading historical data...
Loading historical data...
Loading historical data...
Loading historical data...
Loading historical data...
Loading historical data...
Loading historical data...

Documentation

Showing up to 5 results
|